Zurück zum Katalog

STARLINK-3277

AktivKommunikationVLEO
NORAD 50182·PAYLOAD·🇺🇸 United States

Gestartet Dec 18, 2021 von Vandenberg Space Force Base

Loading…

Nächste Überflüge (nächste 24 Stunden)

TLE

AktuellSource: CelesTrak SupGP

Epoche: Sep 14, 2026, 20:22 UTC

1 50182C 21125AC  26257.84909722 -.00023139  00000+0 -74416-3 0  2571
2 50182  53.1576 105.1254 0001437  83.5271  39.3416 15.31710307    19

Verfolge STARLINK-3277 in Echtzeit mit AllMySat

Download on the App Store